timestamp,wind_dir_avg,wind_spd_avg,wind_spd_max_dir,wind_spd_gust,battery_voltage,lat,long
2019-12-04 00:04:01+00:00,70.0,6.05,70.0,6.98,12.41,47.59359,-54.27349
2019-12-04 00:14:01+00:00,73.0,5.63,75.0,6.53,12.41,47.59359,-54.27349
2019-12-04 00:24:01+00:00,79.0,5.27,79.0,5.7,12.41,47.59359,-54.27349
2019-12-04 00:34:01+00:00,78.0,5.27,76.0,5.85,12.41,47.59359,-54.27349
2019-12-04 00:44:01+00:00,73.0,5.71,75.0,6.34,12.41,47.59359,-54.27349
2019-12-04 00:54:01+00:00,73.0,4.8,71.0,5.14,12.41,47.59359,-54.27349
2019-12-04 01:04:01+00:00,74.0,4.6,77.0,5.36,12.41,47.59359,-54.27349
2019-12-04 01:14:01+00:00,58.0,4.91,58.0,5.13,12.41,47.59359,-54.27349
2019-12-04 01:24:01+00:00,55.0,5.45,51.0,5.88,12.41,47.59359,-54.27349
2019-12-04 01:34:01+00:00,65.0,6.28,60.0,7.02,12.41,47.59359,-54.27349
2019-12-04 01:44:01+00:00,65.0,6.5,69.0,7.09,12.41,47.59359,-54.27349
2019-12-04 01:54:01+00:00,67.0,6.44,70.0,7.02,12.41,47.59359,-54.27349
2019-12-04 02:04:01+00:00,62.0,6.38,64.0,7.14,12.41,47.59359,-54.27349
2019-12-04 02:14:01+00:00,56.0,7.1,57.0,7.69,12.41,47.59359,-54.27349
2019-12-04 02:24:01+00:00,55.0,7.51,54.0,8.31,12.41,47.59359,-54.27349
2019-12-04 02:34:01+00:00,54.0,7.61,52.0,8.7,12.41,47.59359,-54.27349
2019-12-04 02:44:01+00:00,53.0,7.44,54.0,8.19,12.41,47.59359,-54.27349
2019-12-04 02:54:01+00:00,56.0,6.83,60.0,7.66,12.41,47.59359,-54.27349
2019-12-04 03:04:01+00:00,60.0,6.83,55.0,7.89,12.41,47.59359,-54.27349
2019-12-04 03:14:01+00:00,64.0,6.42,61.0,7.57,12.41,47.59359,-54.27349
2019-12-04 03:24:01+00:00,59.0,6.59,61.0,7.45,12.41,47.59359,-54.27349
2019-12-04 03:34:01+00:00,57.0,7.41,60.0,8.29,12.41,47.59359,-54.27349
2019-12-04 03:44:01+00:00,55.0,7.17,57.0,8.05,12.41,47.59359,-54.27349
2019-12-04 03:54:01+00:00,57.0,7.41,56.0,8.46,12.41,47.59359,-54.27349
2019-12-04 04:04:01+00:00,56.0,8.11,57.0,8.73,12.41,47.59359,-54.27349
2019-12-04 04:14:01+00:00,56.0,7.41,56.0,8.15,12.41,47.59359,-54.27349
2019-12-04 04:24:01+00:00,60.0,7.07,65.0,7.92,12.41,47.59359,-54.27349
2019-12-04 04:34:01+00:00,58.0,7.54,59.0,8.74,12.41,47.59359,-54.27349
2019-12-04 04:44:01+00:00,60.0,6.92,62.0,7.95,12.41,47.59359,-54.27349
2019-12-04 04:54:01+00:00,67.0,6.63,67.0,7.35,12.41,47.59359,-54.27349
2019-12-04 05:04:01+00:00,35.0,4.5,34.0,4.91,12.41,47.59359,-54.27349
2019-12-04 05:14:01+00:00,44.0,5.5,43.0,5.99,12.41,47.59359,-54.27349
2019-12-04 05:24:01+00:00,7.0,5.51,16.0,7.04,12.41,47.59359,-54.27349
2019-12-04 05:34:01+00:00,238.0,5.57,226.0,7.65,12.41,47.59359,-54.27349
2019-12-04 05:44:01+00:00,319.0,2.46,316.0,3.08,12.41,47.59359,-54.27349
2019-12-04 05:54:01+00:00,255.0,4.76,258.0,6.86,12.41,47.59359,-54.27349
2019-12-04 06:04:01+00:00,227.0,12.25,226.0,15.77,12.41,47.59359,-54.27349
2019-12-04 06:14:01+00:00,225.0,14.49,228.0,16.75,12.41,47.59359,-54.27349
2019-12-04 06:24:01+00:00,229.0,14.97,230.0,17.54,12.41,47.59359,-54.27349
2019-12-04 06:34:01+00:00,239.0,12.73,239.0,15.47,12.41,47.59359,-54.27349
2019-12-04 06:44:01+00:00,231.0,12.87,229.0,14.79,12.41,47.59359,-54.27349
2019-12-04 06:54:01+00:00,234.0,10.02,232.0,11.76,12.41,47.59359,-54.27349
2019-12-04 07:04:01+00:00,226.0,8.8,224.0,9.7,12.41,47.59359,-54.27349
2019-12-04 07:14:01+00:00,211.0,7.78,212.0,8.61,12.41,47.59359,-54.27349
2019-12-04 07:24:01+00:00,214.0,9.21,212.0,10.12,12.41,47.59359,-54.27349
2019-12-04 07:34:01+00:00,221.0,8.81,220.0,11.0,12.41,47.59359,-54.27349
2019-12-04 07:44:01+00:00,214.0,8.04,213.0,8.78,12.41,47.59359,-54.27349
2019-12-04 07:54:01+00:00,217.0,8.91,217.0,9.8,12.41,47.59359,-54.27349
2019-12-04 08:04:01+00:00,217.0,10.5,220.0,12.42,12.41,47.59359,-54.27349
2019-12-04 08:14:01+00:00,234.0,9.99,230.0,11.13,12.41,47.59359,-54.27349
2019-12-04 08:24:01+00:00,238.0,7.53,240.0,8.56,12.41,47.59359,-54.27349
2019-12-04 08:34:01+00:00,249.0,6.51,246.0,9.0,12.41,47.59359,-54.27349
2019-12-04 08:44:01+00:00,233.0,8.25,232.0,9.22,12.41,47.59359,-54.27349
2019-12-04 08:54:01+00:00,227.0,7.19,234.0,8.13,12.41,47.59359,-54.27349
2019-12-04 09:04:01+00:00,228.0,7.53,229.0,8.27,12.41,47.59359,-54.27349
2019-12-04 09:14:01+00:00,230.0,8.33,230.0,9.4,12.41,47.59359,-54.27349
2019-12-04 09:24:01+00:00,238.0,10.26,248.0,11.48,12.41,47.59359,-54.27349
2019-12-04 09:34:01+00:00,236.0,10.73,239.0,12.47,12.41,47.59359,-54.27349
2019-12-04 09:44:01+00:00,238.0,11.31,242.0,12.77,12.41,47.59359,-54.27349
2019-12-04 09:54:01+00:00,235.0,10.81,226.0,13.01,12.41,47.59359,-54.27349
2019-12-04 10:04:01+00:00,239.0,11.06,238.0,13.41,12.41,47.59359,-54.27349
2019-12-04 10:14:01+00:00,243.0,10.36,252.0,11.5,12.41,47.59359,-54.27349
2019-12-04 10:24:01+00:00,257.0,9.13,258.0,10.4,12.41,47.59359,-54.27349
2019-12-04 10:34:01+00:00,255.0,7.96,256.0,8.86,12.41,47.59359,-54.27349
2019-12-04 10:44:01+00:00,254.0,6.83,245.0,10.24,12.41,47.59359,-54.27349
2019-12-04 10:54:01+00:00,249.0,8.38,251.0,10.45,12.41,47.59359,-54.27349
2019-12-04 11:04:01+00:00,241.0,8.89,235.0,10.93,12.41,47.59359,-54.27349
2019-12-04 12:14:01+00:00,225.0,9.68,229.0,11.0,12.41,47.59359,-54.27349
2019-12-04 12:24:01+00:00,207.0,11.76,206.0,13.18,12.41,47.59359,-54.27349
2019-12-04 12:34:01+00:00,210.0,12.48,207.0,14.28,12.41,47.59359,-54.27349
2019-12-04 12:44:01+00:00,206.0,15.0,208.0,17.08,12.41,47.59359,-54.27349
2019-12-04 12:54:01+00:00,224.0,19.08,223.0,23.73,12.41,47.59359,-54.27349
2019-12-04 13:04:01+00:00,227.0,19.14,224.0,21.46,12.41,47.59359,-54.27349
2019-12-04 13:14:01+00:00,230.0,15.19,230.0,17.55,12.73,47.59359,-54.27349
2019-12-04 13:24:01+00:00,239.0,12.35,246.0,15.31,12.73,47.59359,-54.27349
2019-12-04 13:34:01+00:00,229.0,10.63,236.0,12.08,12.73,47.59359,-54.27349
2019-12-04 13:44:01+00:00,231.0,10.55,231.0,11.69,12.73,47.59359,-54.27349
2019-12-04 13:54:01+00:00,226.0,11.65,222.0,13.14,12.73,47.59359,-54.27349
2019-12-04 14:04:01+00:00,218.0,13.55,213.0,15.99,12.73,47.59359,-54.27349
2019-12-04 14:14:01+00:00,223.0,12.88,222.0,16.38,13.13,47.59359,-54.27349
2019-12-04 14:24:01+00:00,225.0,13.58,225.0,15.93,13.13,47.59359,-54.27349
2019-12-04 14:34:01+00:00,228.0,12.47,228.0,14.42,13.13,47.59359,-54.27349
2019-12-04 14:44:01+00:00,234.0,12.56,232.0,14.84,13.13,47.59359,-54.27349
2019-12-04 14:54:01+00:00,234.0,13.94,238.0,16.28,13.13,47.59359,-54.27349
2019-12-04 15:04:01+00:00,232.0,11.09,231.0,13.4,13.13,47.59359,-54.27349
2019-12-04 15:14:01+00:00,231.0,12.57,231.0,14.9,13.29,47.59359,-54.27349
2019-12-04 15:24:01+00:00,229.0,12.93,218.0,15.17,13.29,47.59359,-54.27349
2019-12-04 15:34:01+00:00,237.0,11.13,237.0,12.77,13.29,47.59359,-54.27349
2019-12-04 15:44:01+00:00,236.0,12.08,237.0,13.9,13.29,47.59359,-54.27349
2019-12-04 15:54:01+00:00,245.0,11.0,247.0,13.0,13.29,47.59359,-54.27349
2019-12-04 16:04:01+00:00,239.0,9.74,240.0,11.23,13.29,47.59359,-54.27349
2019-12-04 16:14:01+00:00,240.0,10.67,238.0,13.11,13.29,47.59359,-54.27349
2019-12-04 16:24:01+00:00,240.0,10.91,231.0,13.45,13.29,47.59359,-54.27349
2019-12-04 16:34:01+00:00,237.0,10.34,235.0,12.48,13.29,47.59359,-54.27349
2019-12-04 16:44:01+00:00,243.0,10.93,238.0,13.51,13.29,47.59359,-54.27349
2019-12-04 16:54:01+00:00,246.0,12.76,251.0,15.16,13.29,47.59359,-54.27349
2019-12-04 17:04:01+00:00,241.0,12.19,235.0,14.9,13.29,47.59359,-54.27349
2019-12-04 17:14:01+00:00,246.0,12.69,248.0,17.27,13.37,47.59359,-54.27349
2019-12-04 17:24:01+00:00,248.0,12.61,252.0,13.95,13.37,47.59359,-54.27349
2019-12-04 17:34:01+00:00,248.0,12.6,253.0,14.91,13.37,47.59359,-54.27349
2019-12-04 17:44:01+00:00,249.0,10.81,246.0,12.51,13.37,47.59359,-54.27349
2019-12-04 17:54:01+00:00,238.0,12.7,235.0,15.3,13.37,47.59359,-54.27349
2019-12-04 18:04:01+00:00,240.0,13.61,240.0,15.49,13.37,47.59359,-54.27349
2019-12-04 18:14:01+00:00,243.0,14.82,240.0,17.04,12.97,47.59359,-54.27349
2019-12-04 18:24:01+00:00,249.0,13.03,250.0,14.97,12.97,47.59359,-54.27349
2019-12-04 18:34:01+00:00,242.0,11.19,252.0,13.71,12.97,47.59359,-54.27349
2019-12-04 18:44:01+00:00,250.0,12.71,251.0,15.27,12.97,47.59359,-54.27349
2019-12-04 18:54:01+00:00,249.0,12.72,253.0,15.8,12.97,47.59359,-54.27349
2019-12-04 19:04:01+00:00,253.0,11.89,251.0,14.23,12.97,47.59359,-54.27349
2019-12-04 19:14:01+00:00,260.0,12.43,262.0,15.04,12.73,47.59359,-54.27349
2019-12-04 19:24:01+00:00,263.0,12.56,263.0,14.37,12.73,47.59359,-54.27349
2019-12-04 19:34:01+00:00,258.0,11.77,253.0,13.62,12.73,47.59359,-54.27349
2019-12-04 19:44:01+00:00,253.0,13.63,250.0,15.62,12.73,47.59359,-54.27349
2019-12-04 19:54:01+00:00,244.0,12.21,240.0,13.82,12.73,47.59359,-54.27349
2019-12-04 20:04:01+00:00,242.0,11.53,245.0,14.26,12.73,47.59359,-54.27349
2019-12-04 20:14:01+00:00,245.0,10.54,243.0,12.02,12.65,47.59359,-54.27349
2019-12-04 20:24:01+00:00,242.0,12.2,241.0,14.97,12.65,47.59359,-54.27349
2019-12-04 20:34:01+00:00,250.0,11.61,254.0,12.98,12.65,47.59359,-54.27349
2019-12-04 20:44:01+00:00,251.0,12.75,255.0,14.95,12.65,47.59359,-54.27349
2019-12-04 20:54:01+00:00,252.0,13.18,249.0,14.74,12.65,47.59359,-54.27349
2019-12-04 21:04:01+00:00,255.0,11.25,255.0,13.69,12.65,47.59359,-54.27349
2019-12-04 21:14:01+00:00,261.0,13.35,259.0,14.93,12.65,47.59359,-54.27349
2019-12-04 21:24:01+00:00,257.0,12.64,264.0,15.11,12.65,47.59359,-54.27349
2019-12-04 21:34:01+00:00,254.0,15.17,253.0,17.7,12.65,47.59359,-54.27349
2019-12-04 21:44:01+00:00,248.0,13.43,250.0,15.82,12.65,47.59359,-54.27349
2019-12-04 21:54:01+00:00,252.0,13.8,250.0,15.91,12.65,47.59359,-54.27349
2019-12-04 22:04:01+00:00,256.0,13.85,258.0,15.64,12.65,47.59359,-54.27349
2019-12-04 22:14:01+00:00,259.0,16.4,263.0,19.61,12.65,47.59359,-54.27349
2019-12-04 22:24:01+00:00,257.0,15.78,255.0,18.64,12.65,47.59359,-54.27349
2019-12-04 22:34:01+00:00,266.0,16.31,271.0,18.37,12.65,47.59359,-54.27349
2019-12-04 22:44:01+00:00,261.0,14.26,261.0,16.07,12.65,47.59359,-54.27349
2019-12-04 22:54:01+00:00,264.0,13.59,260.0,16.19,12.65,47.59359,-54.27349
2019-12-04 23:04:01+00:00,275.0,14.94,275.0,17.13,12.65,47.59359,-54.27349
2019-12-04 23:14:01+00:00,271.0,12.13,273.0,13.65,12.65,47.59359,-54.27349
2019-12-04 23:24:01+00:00,264.0,12.58,262.0,14.79,12.65,47.59359,-54.27349
2019-12-04 23:34:01+00:00,264.0,11.45,267.0,12.94,12.65,47.59359,-54.27349
2019-12-04 23:44:01+00:00,272.0,10.96,278.0,12.61,12.65,47.59359,-54.27349
2019-12-04 23:54:01+00:00,270.0,10.13,270.0,11.41,12.65,47.59359,-54.27349
